This is the latest recevied weather packets stored in our database for station/object AD7ZD. If no packets are shown the sender has not sent any weather packets the latest 10 day(s).
| Time | Temp. | Humidity | Pressure | Rain* | Wind** | Luminosity | Snow |
|---|---|---|---|---|---|---|---|
| 1778276839 | 26.11° C | 10% | 1015.5 hPa | 0 mm | - | 444 W/m² | - |
| 1778276537 | 27.22° C | 11% | 1015.3 hPa | 0 mm | - | 551 W/m² | - |
| 1778276233 | 27.22° C | 10% | 1015.4 hPa | 0 mm | - | 760 W/m² | - |
| 1778275929 | 26.67° C | 11% | 1015.3 hPa | 0 mm | - | 810 W/m² | - |
| 1778275626 | 26.67° C | 11% | 1015.4 hPa | 0 mm | - | 752 W/m² | - |
| 1778275323 | 27.22° C | 10% | 1015.5 hPa | 0 mm | - | 743 W/m² | - |
| 1778275018 | 26.67° C | 11% | 1015.5 hPa | 0 mm | - | 741 W/m² | - |
| 1778274714 | 26.67° C | 10% | 1015.7 hPa | 0 mm | - | 783 W/m² | - |
| 1778274411 | 26.11° C | 12% | 1015.5 hPa | 0 mm | - | 773 W/m² | - |
| 1778274109 | 25.56° C | 12% | 1015.7 hPa | 0 mm | - | 798 W/m² | - |
| 1778273806 | 25.56° C | 12% | 1015.7 hPa | 0 mm | - | 818 W/m² | - |
| 1778273502 | 26.11° C | 12% | 1015.8 hPa | 0 mm | - | 708 W/m² | - |
| 1778273198 | 26.11° C | 13% | 1015.5 hPa | 0 mm | - | 735 W/m² | - |
| 1778272894 | 26.67° C | 12% | 1015.9 hPa | 0 mm | - | 844 W/m² | - |
| 1778272591 | 26.67° C | 12% | 1015.8 hPa | 0 mm | - | 800 W/m² | - |
| 1778272287 | 26.11° C | 12% | 1015.9 hPa | 0 mm | - | 703 W/m² | - |
| 1778271983 | 25° C | 12% | 1016 hPa | 0 mm | - | 618 W/m² | - |
| 1778271681 | 26.11° C | 12% | 1016 hPa | 0 mm | - | 860 W/m² | - |
| 1778271377 | 26.67° C | 12% | 1015.9 hPa | 0 mm | - | 798 W/m² | - |
| 1778271074 | 26.11° C | 12% | 1016 hPa | 0 mm | - | 800 W/m² | - |
| 1778270771 | 25.56° C | 13% | 1016 hPa | 0 mm | - | 772 W/m² | - |
| 1778270467 | 25.56° C | 13% | 1016.1 hPa | 0 mm | - | 812 W/m² | - |
| 1778270164 | 25° C | 13% | 1016.2 hPa | 0 mm | - | 701 W/m² | - |
| 1778269860 | 25.56° C | 13% | 1016.4 hPa | 0 mm | - | 629 W/m² | - |
| 1778269556 | 24.44° C | 13% | 1016.6 hPa | 0 mm | - | 781 W/m² | - |
* Rain latest hour (hover to see other rain measurements)
** Current wind speed in m/s (hover to see current wind gust speed)